Weather History for Midland, MI

Change the Weather History Date:

Thursday, November 7, 2013

  Actual Average (KMBS) Record (KMBS)
Temperature  
Mean Temperature 39 °F 42 °F  
Max Temperature 42 °F 50 °F 64 °F (2008)
Min Temperature 36 °F 34 °F 19 °F (2002)
Degree Days  
Heating Degree Days 26    
Month to date heating degree days  
Since 1 July heating degree days  
Cooling Degree Days 0    
Month to date cooling degree days  
Year to date cooling degree days  
Moisture  
Dew Point 30 °F    
Average Humidity 71    
Maximum Humidity 93    
Minimum Humidity 50    
Precipitation  
Precipitation 0.00 in 0.09 in 1.02 in (1996)
Month to date precipitation 0.65  
Year to date precipitation 27.63  
Snow  
Snow 0.00 in - - ()
Month to date snowfall  
Since 1 July snowfall  
Since 1 September snowfall  
Snow Depth -    
Sea Level Pressure  
Sea Level Pressure 30.06 in    
Wind  
Wind Speed 6 mph (West)    
Max Wind Speed 13 mph    
Max Gust Speed 20 mph    
Visibility 10 miles    
Events Rain    
T = Trace of Precipitation, MM = Missing Value Source: NWS Daily Summary

Daily Weather History Graph

Daily Weather History Graph

Search for Another Location

Airport:

Trip Planner

Search our weather history database for the weather conditions in past years. The results will help you decide how hot, cold, wet, or windy it might be!

Date:

Astronomy

Nov. 07, 2013 Rise Set
Actual Time 7:21 AM EST 5:19 PM EST
Civil Twilight 6:50 AM EST 5:50 PM EST
Nautical Twilight 6:16 AM EST 6:24 PM EST
Astronomical Twilight 5:42 AM EST 6:58 PM EST
Moon 11:30 AM EST (11/7) 9:29 PM EST (11/7)
Length of Visible Light 10h 59m
Length of Day
9h 58m
Waxing Crescent, 22% of the Moon is Illuminated
Nov 7
Waxing Crescent
Nov 10
First Quarter
Nov 17
Full
Nov 25
Last Quarter
Dec 2
New

Hourly Weather History & Observations

Time (EST) Temp. Windchill Dew Point Humidity Pressure Visibility Wind Dir Wind Speed Gust Speed Precip Events Conditions
12:13 AM 40.3 °F 38.2 °F 34.9 °F 81% 29.99 in 10.0 mi WNW 3.5 mph - N/A   Mostly Cloudy
12:34 AM 40.1 °F 38.0 °F 35.1 °F 82% 29.99 in 10.0 mi WNW 3.5 mph - N/A   Overcast
12:53 AM 40.1 °F 36.1 °F 35.2 °F 83% 29.99 in 10.0 mi WNW 5.8 mph - N/A   Overcast
1:13 AM 40.1 °F 36.1 °F 35.2 °F 83% 30.00 in 10.0 mi West 5.8 mph - N/A   Overcast
1:34 AM 40.1 °F 36.9 °F 35.2 °F 83% 30.00 in 10.0 mi West 4.6 mph - N/A   Overcast
1:53 AM 40.1 °F 35.3 °F 34.7 °F 81% 30.01 in 10.0 mi WNW 6.9 mph - N/A   Overcast
2:13 AM 40.1 °F 35.3 °F 33.8 °F 78% 30.01 in 10.0 mi WNW 6.9 mph - N/A   Overcast
2:34 AM 39.9 °F 36.7 °F 34.0 °F 79% 30.02 in 10.0 mi WNW 4.6 mph - N/A   Overcast
2:53 AM 39.7 °F 37.6 °F 34.0 °F 80% 30.02 in 10.0 mi West 3.5 mph - N/A   Overcast
3:13 AM 39.6 °F 37.4 °F 34.3 °F 82% 30.02 in 10.0 mi WSW 3.5 mph - N/A   Overcast
3:33 AM 39.4 °F 36.1 °F 34.9 °F 84% 30.02 in 10.0 mi West 4.6 mph - N/A   Overcast
3:53 AM 39.4 °F 36.1 °F 34.9 °F 84% 30.02 in 10.0 mi West 4.6 mph - N/A   Overcast
4:14 AM 39.2 °F 35.9 °F 34.7 °F 84% 30.02 in 10.0 mi West 4.6 mph - N/A   Overcast
4:33 AM 39.0 °F 33.4 °F 34.2 °F 83% 30.03 in 10.0 mi West 8.1 mph - N/A   Overcast
4:54 AM 37.9 °F 30.9 °F 33.8 °F 85% 30.04 in 5.0 mi WNW 10.4 mph - N/A Rain Light Rain
5:13 AM 36.7 °F 32.0 °F 34.7 °F 93% 30.04 in 7.0 mi WNW 5.8 mph - N/A   Light Drizzle
5:33 AM 36.9 °F 31.4 °F 34.5 °F 91% 30.04 in 10.0 mi WNW 6.9 mph - N/A   Overcast
5:54 AM 36.9 °F 29.6 °F 32.4 °F 84% 30.04 in 10.0 mi West 10.4 mph - N/A   Overcast
6:13 AM 36.7 °F 32.9 °F 31.8 °F 83% 30.04 in 10.0 mi West 4.6 mph - N/A   Overcast
6:33 AM 36.7 °F 31.2 °F 31.5 °F 81% 30.06 in 10.0 mi West 6.9 mph - N/A   Overcast
6:54 AM 36.7 °F 31.2 °F 30.6 °F 78% 30.06 in 10.0 mi West 6.9 mph - N/A   Overcast
7:13 AM 36.7 °F 32.0 °F 30.0 °F 77% 30.07 in 10.0 mi West 5.8 mph - N/A   Overcast
7:33 AM 36.7 °F 32.0 °F 30.4 °F 78% 30.07 in 10.0 mi WSW 5.8 mph - N/A   Overcast
7:54 AM 36.5 °F 30.3 °F 29.7 °F 76% 30.08 in 10.0 mi West 8.1 mph - N/A   Overcast
8:13 AM 36.5 °F 31.8 °F 30.0 °F 77% 30.08 in 10.0 mi West 5.8 mph - N/A   Overcast
8:33 AM 36.5 °F 31.8 °F 29.8 °F 77% 30.09 in 10.0 mi West 5.8 mph - N/A   Overcast
8:44 AM 36.5 °F 32.7 °F 29.7 °F 76% 30.09 in 10.0 mi WSW 4.6 mph - N/A   Overcast
9:14 AM 36.7 °F 30.5 °F 29.7 °F 76% 30.09 in 10.0 mi West 8.1 mph - N/A   Overcast
9:33 AM 36.7 °F 29.4 °F 29.7 °F 76% 30.09 in 10.0 mi West 10.4 mph - N/A   Overcast
9:53 AM 36.7 °F 32.0 °F 29.8 °F 76% 30.10 in 10.0 mi West 5.8 mph - N/A   Overcast
10:14 AM 36.9 °F 30.7 °F 30.0 °F 76% 30.09 in 10.0 mi West 8.1 mph - N/A   Overcast
10:33 AM 37.2 °F 33.6 °F 30.4 °F 76% 30.10 in 10.0 mi West 4.6 mph - N/A   Overcast
10:54 AM 37.6 °F 31.0 °F 30.7 °F 76% 30.10 in 10.0 mi West 9.2 mph - N/A   Overcast
11:13 AM 37.6 °F 31.0 °F 29.8 °F 74% 30.11 in 10.0 mi West 9.2 mph - N/A   Overcast
11:33 AM 38.3 °F 33.2 °F 29.8 °F 72% 30.11 in 10.0 mi WSW 6.9 mph - N/A   Overcast
11:53 AM 38.3 °F 32.5 °F 29.3 °F 70% 30.11 in 10.0 mi West 8.1 mph - N/A   Overcast
12:13 PM 38.5 °F 33.4 °F 30.0 °F 72% 30.10 in 10.0 mi WSW 6.9 mph 18.4 mph N/A   Overcast
12:34 PM 39.0 °F 32.8 °F 30.2 °F 71% 30.09 in 10.0 mi West 9.2 mph - N/A   Overcast
12:53 PM 39.2 °F 34.2 °F 30.2 °F 70% 30.09 in 10.0 mi West 6.9 mph - N/A   Overcast
1:13 PM 40.3 °F 36.3 °F 29.1 °F 64% 30.09 in 10.0 mi West 5.8 mph - N/A   Overcast
1:34 PM 40.3 °F 33.4 °F 28.2 °F 62% 30.08 in 10.0 mi WNW 11.5 mph 18.4 mph N/A   Overcast
1:53 PM 40.5 °F 35.1 °F 28.4 °F 62% 30.08 in 10.0 mi West 8.1 mph - N/A   Overcast
2:13 PM 40.8 °F 35.0 °F 28.6 °F 62% 30.07 in 10.0 mi West 9.2 mph - N/A   Overcast
2:34 PM 41.4 °F 38.4 °F 28.4 °F 60% 30.06 in 10.0 mi West 4.6 mph - N/A   Overcast
2:53 PM 42.1 °F 36.6 °F 27.5 °F 56% 30.05 in 10.0 mi NW 9.2 mph 19.6 mph N/A   Overcast
3:13 PM 41.9 °F 35.0 °F 25.7 °F 53% 30.06 in 10.0 mi West 12.7 mph 18.4 mph N/A   Overcast
3:34 PM 42.1 °F 37.7 °F 26.2 °F 53% 30.05 in 10.0 mi West 6.9 mph - N/A   Overcast
3:53 PM 42.3 °F 35.5 °F 25.2 °F 51% 30.05 in 10.0 mi WNW 12.7 mph 18.4 mph N/A   Mostly Cloudy
4:13 PM 41.9 °F 36.3 °F 24.6 °F 50% 30.05 in 10.0 mi West 9.2 mph - N/A   Scattered Clouds
4:34 PM 41.5 °F 35.0 °F 24.4 °F 51% 30.05 in 10.0 mi West 11.5 mph 18.4 mph N/A   Scattered Clouds
4:53 PM 41.0 °F 34.3 °F 24.4 °F 52% 30.05 in 10.0 mi WNW 11.5 mph 18.4 mph N/A   Mostly Cloudy
5:13 PM 40.6 °F 35.4 °F 24.6 °F 53% 30.06 in 10.0 mi West 8.1 mph - N/A   Overcast
5:34 PM 40.5 °F 35.8 °F 25.2 °F 54% 30.06 in 10.0 mi West 6.9 mph - N/A   Overcast
5:53 PM 40.1 °F 33.6 °F 25.3 °F 56% 30.07 in 10.0 mi West 10.4 mph 17.3 mph N/A   Overcast
6:13 PM 39.6 °F 33.0 °F 25.2 °F 56% 30.07 in 10.0 mi West 10.4 mph 16.1 mph N/A   Overcast
6:33 PM 39.2 °F 35.0 °F 25.7 °F 58% 30.08 in 10.0 mi West 5.8 mph - N/A   Overcast
6:53 PM 39.2 °F 32.5 °F 25.7 °F 58% 30.08 in 10.0 mi West 10.4 mph - N/A   Overcast
7:13 PM 39.0 °F 34.0 °F 25.5 °F 58% 30.09 in 10.0 mi West 6.9 mph - N/A   Overcast
7:33 PM 38.7 °F 34.3 °F 25.9 °F 60% 30.08 in 10.0 mi WSW 5.8 mph - N/A   Overcast
7:53 PM 38.5 °F 34.1 °F 26.4 °F 62% 30.08 in 10.0 mi West 5.8 mph - N/A   Overcast
8:14 PM 38.5 °F 32.7 °F 27.1 °F 64% 30.08 in 10.0 mi West 8.1 mph - N/A   Overcast
8:33 PM 38.3 °F 33.2 °F 27.5 °F 65% 30.08 in 10.0 mi WSW 6.9 mph - N/A   Overcast
8:53 PM 37.8 °F 32.5 °F 27.5 °F 67% 30.08 in 10.0 mi West 6.9 mph - N/A   Overcast
9:14 PM 37.6 °F 32.3 °F 27.1 °F 66% 30.08 in 10.0 mi West 6.9 mph - N/A   Overcast
9:33 PM 37.6 °F 32.3 °F 26.6 °F 65% 30.08 in 10.0 mi West 6.9 mph - N/A   Overcast
9:53 PM 37.4 °F 32.8 °F 26.6 °F 65% 30.08 in 10.0 mi West 5.8 mph - N/A   Overcast
10:14 PM 37.4 °F 32.1 °F 26.8 °F 66% 30.09 in 10.0 mi West 6.9 mph - N/A   Overcast
10:33 PM 37.4 °F 32.8 °F 27.0 °F 66% 30.09 in 10.0 mi West 5.8 mph - N/A   Overcast
10:53 PM 37.2 °F 33.6 °F 27.1 °F 67% 30.09 in 10.0 mi West 4.6 mph - N/A   Overcast
11:14 PM 36.9 °F 32.2 °F 27.1 °F 68% 30.09 in 10.0 mi West 5.8 mph - N/A   Overcast
11:33 PM 36.0 °F 31.1 °F 27.1 °F 70% 30.09 in 10.0 mi West 5.8 mph - N/A   Mostly Cloudy
11:53 PM 36.0 °F 32.1 °F 27.5 °F 71% 30.09 in 10.0 mi West 4.6 mph - N/A   Overcast